GFSSGP_sfc_wetblb_021.txt.gz
Wetbulb
58.90 56.71 55.70 53.59 45.86 42.82 39.52 41.63 44.31 44.48 45.56 47.07 46.44 47.03 47.38 48.03 47.25 44.90 54.83 61.17 62.09 63.92 67.14 70.88 71.53 72.35 72.63 72.44 72.03 71.96 71.52 71.70 71.61 71.44 70.89 69.91 69.31 69.37 69.43 69.13 69.86 70.24 70.10 69.03 67.86 66.70 66.62 66.39 66.25
55.68 56.44 53.65 48.30 42.01 36.82 37.27 42.40 43.43 45.08 46.97 47.16 47.11 47.73 47.79 47.71 50.55 52.96 56.76 59.56 62.63 64.78 67.46 70.01 70.44 71.91 72.41 72.20 71.98 71.82 72.06 72.03 71.15 70.93 70.83 69.65 68.57 67.36 67.52 67.95 68.02 68.24 67.99 66.72 65.89 65.00 64.26 63.59 63.19
55.32 53.64 50.50 44.06 38.11 36.43 37.97 42.80 44.34 45.65 46.12 47.40 47.15 48.43 48.80 49.07 50.97 53.26 57.04 61.08 63.03 64.93 67.37 68.62 69.87 71.33 71.66 72.05 71.98 72.22 72.07 71.76 71.03 70.15 69.12 67.95 67.53 66.81 66.31 66.55 67.00 66.85 66.34 65.07 63.60 62.36 61.76 61.33 60.87
52.37 50.24 46.18 42.86 39.45 41.59 42.02 45.18 44.03 45.08 46.14 46.14 47.03 46.01 47.70 50.79 52.36 53.47 57.10 60.68 63.03 64.47 66.37 68.03 69.95 70.87 71.57 71.59 71.73 71.68 71.60 71.06 70.03 68.37 68.03 67.80 66.64 65.70 64.80 64.65 66.17 65.12 63.96 62.75 61.30 60.43 60.48 59.85 59.51
48.47 45.78 40.30 38.35 38.30 41.21 42.79 44.50 44.81 44.55 45.29 45.90 46.46 46.02 46.22 50.76 51.02 53.25 57.76 60.70 62.52 63.42 64.96 67.54 69.29 70.36 70.83 70.53 70.20 70.11 69.43 69.49 68.19 66.54 67.32 66.94 65.65 64.09 62.92 63.16 63.25 62.32 61.46 60.31 59.98 59.93 59.16 58.10 57.93
45.48 44.22 38.58 35.93 37.30 40.72 42.73 44.63 44.60 44.33 45.10 45.21 45.25 45.81 47.23 49.05 50.23 52.58 57.85 59.89 61.42 62.38 62.79 65.08 66.27 67.81 68.00 68.64 69.59 69.41 69.31 68.89 67.19 66.16 66.04 65.55 63.93 62.65 61.66 61.65 61.10 60.61 59.93 59.92 59.49 58.84 57.83 57.31 56.66
44.17 41.40 37.97 37.25 37.63 40.01 43.58 43.97 43.75 44.60 44.67 45.29 46.51 45.80 48.14 47.86 49.50 52.79 57.09 58.42 59.56 60.53 60.93 62.69 65.16 66.09 64.89 66.47 66.90 66.56 67.77 67.80 66.45 65.77 65.38 63.95 62.46 61.31 60.62 60.36 60.13 60.08 59.95 59.02 58.28 57.62 57.16 56.24 55.04
44.52 43.06 38.61 37.46 37.61 39.64 43.67 43.18 44.28 44.46 45.42 45.81 47.18 45.40 46.53 49.54 49.53 52.74 55.07 56.31 56.97 57.99 59.51 60.64 62.29 63.80 64.63 65.39 64.28 65.07 66.10 66.09 65.79 64.84 63.27 61.46 61.17 60.89 60.64 60.22 60.29 59.65 58.89 57.68 56.75 56.25 55.68 54.67 52.98
45.14 38.88 35.40 38.04 37.09 40.34 43.07 42.50 44.18 44.86 44.69 44.75 46.18 46.35 47.84 46.15 49.61 51.29 52.72 53.10 54.04 54.78 56.49 58.06 59.73 60.90 61.69 62.34 62.46 62.88 63.45 63.42 62.85 61.62 60.09 58.25 56.84 57.17 56.87 56.98 59.90 58.97 57.28 56.02 55.00 54.20 52.91 51.52 50.12
43.23 36.97 37.82 40.16 39.64 41.33 42.97 42.91 44.12 44.08 44.08 42.80 44.68 46.13 45.46 45.58 48.34 49.68 50.72 52.45 52.80 53.73 54.71 55.71 57.40 58.28 58.34 58.36 60.25 61.41 60.54 61.19 59.26 57.87 55.99 53.35 52.67 52.99 52.68 55.63 57.69 57.63 56.10 54.27 53.02 50.80 47.45 43.20 42.90
42.28 39.69 40.54 41.73 41.47 42.88 42.92 41.73 43.96 42.99 43.00 43.79 44.38 46.52 45.12 44.12 45.76 48.35 49.93 52.01 53.31 54.74 54.36 53.95 55.00 56.21 56.38 56.87 56.76 57.04 57.24 56.68 55.32 54.28 51.38 50.37 49.64 51.11 51.43 51.63 50.14 49.77 48.48 48.04 46.77 43.19 42.18 42.23 42.24
40.65 42.75 42.14 44.04 43.94 43.05 42.29 42.94 41.83 42.68 47.79 47.71 46.27 46.85 45.44 44.19 44.05 46.27 48.62 50.10 51.04 51.55 53.29 53.56 53.35 53.77 54.38 54.67 54.97 54.82 54.36 53.35 52.10 51.30 49.21 47.63 47.23 48.41 47.73 47.49 46.20 45.61 43.99 42.47 41.69 41.65 41.26 41.06 40.68
40.96 41.88 43.58 43.76 43.21 43.10 43.12 43.23 42.78 42.63 46.06 45.89 44.95 44.00 44.30 44.09 44.70 45.26 48.06 49.88 50.00 49.51 51.79 52.37 52.72 53.37 53.17 52.22 53.44 52.66 52.88 51.83 51.08 49.00 47.20 45.97 45.76 46.27 45.27 44.15 41.98 41.32 40.50 40.81 40.36 40.46 40.23 40.34 40.06
41.04 41.72 41.65 41.91 42.43 42.35 42.64 43.85 41.69 44.02 44.76 44.50 43.30 44.07 43.44 43.07 44.67 44.31 43.49 46.04 46.75 49.31 50.21 51.49 51.52 52.81 52.32 52.18 51.74 52.30 51.58 50.65 48.87 47.93 46.53 44.33 44.82 44.74 43.87 41.02 39.77 39.37 39.68 39.69 39.85 39.56 39.38 39.50 39.57
40.65 39.23 39.32 39.11 40.34 40.62 40.86 39.68 38.22 45.16 42.24 43.80 43.93 42.82 42.30 43.37 43.18 44.07 46.75 45.54 46.52 47.46 49.19 49.65 50.72 51.92 51.37 51.58 50.63 51.55 50.42 47.79 47.88 47.00 45.00 43.75 43.13 42.77 42.20 40.37 38.95 38.83 38.70 38.66 38.46 37.90 38.00 38.32 38.18
36.33 35.77 33.57 37.87 38.62 39.11 41.06 35.64 41.90 42.33 40.43 41.74 42.30 42.66 43.13 43.85 43.83 45.02 45.87 46.09 46.70 46.59 45.61 48.19 49.65 49.96 50.90 51.10 50.30 50.27 49.10 47.97 47.68 45.59 44.78 43.16 42.48 41.91 40.34 39.70 38.72 38.14 37.72 38.17 38.12 37.41 37.09 37.74 38.00
32.95 30.77 30.95 34.51 38.85 38.70 38.43 36.04 40.52 40.87 40.26 41.30 42.67 44.35 43.51 45.62 47.21 45.72 45.21 45.76 45.77 45.98 45.79 44.78 47.84 48.73 49.55 50.26 49.98 49.11 47.67 47.41 46.52 44.75 43.65 42.77 41.74 40.77 40.29 39.65 38.55 37.28 36.95 37.03 36.90 35.98 36.96 36.41 36.31
30.63 28.72 30.16 31.60 37.12 35.10 34.97 35.47 39.62 42.03 40.90 42.18 43.05 43.41 44.44 45.10 45.83 48.03 46.22 44.80 45.04 45.35 45.90 45.19 44.59 47.37 48.10 48.80 48.08 46.34 44.38 46.32 44.79 43.81 42.89 42.18 41.67 40.10 39.62 38.65 37.71 36.63 36.12 35.83 35.75 35.78 35.16 36.30 36.05
31.71 30.60 29.92 33.13 36.78 34.41 36.64 36.89 37.97 40.60 39.92 41.01 42.71 43.75 43.66 43.95 46.20 46.74 45.46 45.23 43.80 43.12 43.37 43.61 42.28 44.21 45.86 45.72 43.51 42.63 42.28 43.52 42.35 43.42 42.58 41.72 41.48 40.01 39.27 38.40 37.03 36.21 35.90 35.79 35.56 35.07 34.85 34.08 34.50
33.33 32.52 31.74 35.36 37.53 33.57 33.97 35.56 39.45 40.71 41.35 42.25 42.70 43.21 42.80 42.72 44.87 45.12 43.66 43.11 42.66 43.52 42.33 42.75 42.30 42.69 44.10 45.28 45.09 45.25 44.74 43.63 43.36 42.57 41.50 41.36 40.83 39.57 38.71 37.71 36.52 35.70 35.17 34.60 34.49 34.77 33.49 33.97 33.40
31.15 30.18 32.38 31.71 33.30 33.62 31.34 32.06 33.28 38.24 38.63 40.54 42.18 42.72 42.52 42.33 43.01 44.34 42.69 42.46 42.49 41.44 41.10 41.70 42.10 41.90 42.78 44.17 43.61 37.33 38.98 37.74 38.76 38.96 39.00 39.01 39.59 38.92 38.80 37.41 36.57 35.44 35.65 34.53 34.38 34.75 35.03 33.59 32.13
31.23 34.56 33.95 31.88 29.71 26.65 32.44 26.33 31.16 36.78 37.77 37.96 39.14 39.18 40.02 40.28 41.42 41.39 40.82 40.29 41.22 42.47 41.09 40.92 41.39 41.19 41.50 42.65 41.52 40.82 41.29 39.48 39.87 40.98 39.95 38.83 38.49 38.18 38.32 37.12 36.35 35.71 35.16 34.78 34.10 34.24 35.23 34.50 32.83
33.02 33.57 31.90 30.89 28.47 27.02 27.23 25.35 30.26 32.88 35.96 37.45 40.07 40.18 41.10 40.81 39.21 39.40 39.11 39.69 39.73 39.85 39.48 39.38 39.86 40.18 40.80 41.23 41.49 40.38 41.09 41.43 39.15 41.01 39.06 38.07 36.98 37.59 36.57 36.51 35.73 35.09 34.52 34.64 34.22 33.13 33.22 34.23 33.98
34.35 31.63 30.36 27.91 27.46 22.63 28.33 28.04 28.55 32.14 35.33 36.05 39.75 40.88 39.67 39.54 39.28 40.36 39.64 38.95 39.48 37.89 36.98 37.37 37.71 37.49 38.68 39.76 40.22 39.57 40.17 38.27 37.36 36.75 37.14 36.20 35.65 35.40 35.23 35.18 34.89 35.00 34.37 33.53 33.06 33.69 33.56 33.19 33.17
33.20 29.45 23.80 21.62 20.74 22.96 27.09 25.87 31.20 35.36 37.46 38.13 39.57 39.33 39.12 37.77 37.76 38.90 40.67 39.61 38.33 36.89 35.10 35.65 36.03 36.30 37.41 37.99 38.71 38.74 39.65 38.68 37.61 36.67 37.33 35.58 34.74 34.18 33.92 34.18 33.62 33.46 33.65 33.01 32.96 32.47 32.65 32.35 32.23
31.16 32.27 27.24 21.85 19.12 25.66 27.62 26.78 32.80 36.96 38.66 37.70 36.55 37.50 38.17 37.89 38.21 38.13 37.32 37.22 36.97 36.19 35.40 34.81 34.65 35.01 35.39 35.55 36.70 37.14 38.30 38.31 37.27 36.70 37.29 36.13 36.14 36.02 35.87 33.65 34.18 33.79 32.93 32.17 31.93 31.95 31.85 31.87 32.01
30.72 29.25 33.66 28.36 27.97 23.30 28.43 32.43 38.73 37.98 36.89 35.69 36.36 36.17 35.37 35.05 35.04 35.07 35.52 35.86 36.26 36.27 35.91 34.92 34.19 34.39 34.93 34.89 35.25 35.67 36.07 36.24 35.98 35.01 35.81 36.00 36.32 35.96 35.00 33.89 33.12 32.43 31.91 31.89 31.61 31.46 30.63 30.64 31.56
33.23 34.84 28.18 27.45 21.76 21.62 26.99 27.37 31.21 34.56 35.16 35.23 32.84 32.83 33.83 34.41 34.29 34.81 34.99 34.92 35.62 36.21 37.30 37.76 36.94 35.08 34.97 34.66 34.45 34.88 35.12 35.47 35.98 33.82 33.19 33.99 34.81 34.83 33.98 32.82 32.97 31.84 31.48 31.13 30.80 31.14 30.37 29.64 29.90
29.04 28.60 29.62 29.49 29.41 25.30 24.28 26.91 37.44 34.40 31.01 31.30 32.13 32.92 32.04 31.73 33.03 33.56 34.60 35.28 35.45 35.92 35.91 36.10 36.18 35.56 34.82 35.25 34.58 33.52 33.81 34.16 34.31 32.77 32.88 33.30 33.47 33.21 32.43 32.18 32.00 31.47 30.68 30.46 29.66 30.32 29.57 28.89 28.87
33.83 34.38 33.57 28.07 26.45 27.73 29.11 29.45 38.54 32.07 31.49 31.23 29.35 29.76 30.40 30.82 31.49 32.75 33.78 34.65 34.97 34.94 34.94 34.95 34.74 34.75 34.00 34.01 34.11 33.67 33.13 32.35 32.01 32.50 32.32 32.64 32.41 32.16 32.33 31.57 31.29 30.84 30.20 29.88 29.60 29.24 28.51 28.39 27.36

GFSSGP_sfc_wetblb_024.txt.gz
Wetbulb
62.63 62.36 63.87 61.40 51.02 49.90 45.65 46.95 49.54 49.24 49.33 51.34 51.66 51.65 51.32 52.32 49.99 48.02 59.82 64.53 64.98 65.58 70.28 71.69 72.34 73.01 73.04 72.74 72.25 71.45 71.66 72.34 71.86 71.36 70.76 69.96 69.51 69.19 69.75 70.47 70.78 70.60 70.02 68.97 67.97 67.02 66.63 66.49 65.94
61.21 60.52 62.15 58.31 47.53 43.46 44.94 48.47 48.53 50.30 50.73 51.63 51.32 51.64 51.38 50.78 54.92 56.66 60.28 63.95 65.30 66.17 69.93 71.29 71.00 72.73 72.91 72.66 72.18 71.62 71.49 71.79 71.70 71.29 70.65 69.90 68.97 67.86 67.95 68.88 69.14 69.12 68.29 67.53 66.56 65.78 64.67 63.78 62.69
59.15 58.62 56.09 52.17 48.33 43.83 45.08 48.60 49.54 49.90 50.85 51.68 51.42 52.79 52.85 52.47 55.03 57.87 61.34 64.41 65.53 66.48 69.06 70.57 70.48 72.26 72.77 72.62 72.14 72.11 71.94 72.55 72.16 71.19 70.15 69.19 68.13 66.81 66.73 66.92 67.27 67.05 66.74 65.78 64.08 63.06 62.48 61.41 61.37
59.46 58.41 55.03 47.54 44.96 47.91 47.52 49.75 50.64 51.13 50.37 51.30 51.58 50.33 53.08 55.81 56.22 58.32 61.75 65.09 65.32 66.38 68.31 69.11 70.50 72.00 72.49 72.40 72.24 71.97 72.33 72.25 71.60 69.83 68.91 68.32 67.54 66.40 65.75 65.89 66.61 66.13 65.20 63.74 62.23 61.34 60.92 59.98 59.30
58.83 55.86 48.33 45.76 45.23 47.39 49.70 50.39 50.32 49.60 49.95 50.59 50.74 50.31 51.16 53.98 56.15 57.86 62.97 64.55 65.62 66.29 68.29 69.56 69.62 70.80 71.41 72.00 72.07 72.20 72.10 71.09 70.31 68.99 68.16 68.26 67.24 65.88 64.66 65.26 65.30 64.26 62.96 61.50 60.85 60.71 58.97 58.47 57.80
53.35 53.87 45.58 43.47 44.65 47.51 49.63 50.82 49.81 49.76 50.28 50.01 49.73 50.64 52.45 54.46 54.85 57.66 62.23 64.55 66.19 66.24 67.84 68.99 67.31 68.55 70.25 70.73 70.90 71.00 70.35 70.13 69.12 67.61 66.54 67.61 66.32 64.90 63.54 63.90 63.27 62.37 60.93 60.54 60.30 58.95 58.13 57.38 56.63
50.59 49.42 44.78 44.87 45.29 46.78 48.88 49.44 49.19 49.97 49.76 50.50 51.79 49.58 53.28 53.71 55.04 57.47 61.16 64.45 65.69 66.77 67.19 68.29 68.96 68.33 65.76 67.34 68.32 68.89 69.10 69.15 68.27 67.26 67.10 66.51 65.36 63.67 62.46 62.30 61.56 61.03 60.52 60.31 59.31 58.28 57.24 56.23 54.99
54.21 51.43 45.22 46.34 45.17 44.96 49.32 48.82 50.18 49.93 49.80 50.89 52.19 49.84 50.67 54.36 54.79 57.99 60.53 62.84 64.24 65.75 66.42 67.27 68.17 68.38 68.43 67.62 64.67 65.14 66.24 67.18 66.85 65.67 64.47 63.76 62.90 62.64 62.06 61.22 61.22 60.51 60.15 58.97 57.99 57.27 56.10 54.70 53.11
51.93 47.42 44.67 44.89 44.35 46.24 49.54 48.38 49.56 50.75 50.25 50.07 51.92 52.69 54.41 52.99 54.90 57.02 58.80 60.56 61.84 62.74 64.71 66.11 66.58 67.21 67.35 67.07 65.17 63.32 64.07 64.73 64.57 64.28 61.99 60.52 61.98 60.89 59.99 59.56 61.18 60.42 58.61 57.54 56.81 55.67 54.22 52.22 50.34
50.59 46.90 46.08 48.46 48.43 47.16 48.97 48.66 50.12 49.21 50.21 50.21 50.64 53.52 53.00 52.13 54.30 55.53 56.89 58.27 59.75 60.81 62.08 63.88 64.93 65.37 65.96 65.53 66.16 66.68 65.76 65.40 65.39 65.22 63.56 62.12 60.74 60.17 58.86 57.53 59.45 59.93 57.89 55.95 55.19 52.95 49.36 46.61 48.55
50.11 46.58 49.41 48.15 48.35 48.11 48.13 48.29 49.98 49.25 48.51 51.30 51.12 52.50 54.23 52.23 52.87 53.92 55.81 57.65 59.32 60.94 61.68 61.63 62.76 64.10 64.62 64.73 65.18 65.59 66.02 63.96 65.06 64.09 62.45 60.73 58.78 57.81 57.59 58.39 58.20 58.12 54.78 54.51 52.88 49.01 47.68 47.14 47.90
46.60 49.43 49.63 49.51 48.74 48.26 47.78 49.46 48.44 49.40 50.63 52.98 53.59 53.80 53.61 52.63 52.50 53.01 54.32 56.08 57.63 59.04 60.47 61.23 61.54 62.18 63.17 64.22 63.93 64.23 64.48 64.39 63.16 62.06 60.22 58.39 57.11 56.61 56.21 56.90 56.88 55.97 54.32 52.43 49.50 47.84 47.37 46.52 45.90
46.99 49.05 49.64 50.18 48.90 48.68 49.27 48.46 48.84 49.41 52.07 53.23 53.07 51.79 51.43 52.28 52.79 53.99 54.12 55.60 57.03 57.15 58.64 59.91 60.76 60.93 61.65 62.09 62.47 62.77 62.59 62.40 61.97 60.33 58.35 57.36 56.18 54.89 54.73 55.13 54.68 53.86 51.97 49.72 47.10 46.81 46.13 45.74 45.07
48.14 47.77 48.15 48.53 48.18 48.43 46.63 48.03 47.13 49.14 51.69 50.84 50.85 50.80 51.50 51.49 52.14 52.78 52.97 52.57 54.12 55.91 57.16 58.90 59.20 60.04 60.69 60.85 61.16 61.19 61.13 61.37 60.79 58.94 57.42 56.11 55.26 53.71 52.95 53.12 52.18 50.75 48.94 47.25 46.80 46.08 45.81 45.45 45.25
47.00 44.36 46.82 47.23 46.66 46.09 47.15 44.54 44.97 49.86 50.50 49.09 49.74 50.71 50.80 50.71 51.29 51.31 52.90 53.11 53.51 54.53 55.95 56.81 57.82 58.93 59.31 59.39 60.31 60.35 60.07 59.58 59.11 58.03 56.82 54.71 53.58 52.14 51.42 51.28 49.90 47.86 46.43 45.98 45.69 44.75 44.86 44.39 43.73
43.56 43.23 41.00 45.74 44.25 45.37 46.26 41.73 47.54 49.83 47.54 47.85 49.18 50.19 50.63 51.27 51.84 52.80 53.01 53.21 53.91 54.02 53.84 55.29 55.66 56.74 58.00 58.57 59.31 59.04 59.08 58.12 57.35 57.19 55.84 53.84 52.22 51.22 50.20 49.39 48.02 46.29 45.17 45.04 44.62 43.94 43.48 43.92 43.55
43.03 39.20 41.00 42.33 44.94 44.28 44.42 42.74 47.21 48.11 46.96 46.95 48.06 48.86 49.36 50.08 51.17 52.51 53.26 53.02 53.30 53.57 53.40 53.28 54.60 54.96 56.26 57.55 58.15 58.23 57.78 57.17 56.63 56.25 54.93 53.13 51.30 50.05 49.00 48.36 47.35 45.30 44.24 43.98 43.94 43.39 43.73 42.97 42.81
40.40 39.07 39.42 39.11 43.99 42.50 41.61 41.52 45.14 46.93 46.49 46.23 47.18 48.20 49.17 49.56 50.16 51.75 52.13 52.94 52.60 53.07 53.15 53.16 52.74 53.74 54.83 55.95 56.69 56.70 56.20 55.71 55.98 55.30 54.07 52.73 50.73 48.73 48.13 47.16 46.44 44.32 43.50 43.22 43.32 42.78 42.74 43.48 42.63
42.02 39.77 39.17 42.02 44.35 41.23 41.27 42.01 43.68 45.38 45.57 45.78 46.84 47.90 48.91 49.37 51.16 51.30 51.18 51.72 51.88 52.23 51.70 51.56 51.37 51.21 52.80 52.97 53.42 54.07 53.43 53.29 53.84 54.00 52.93 51.86 50.51 48.52 47.58 46.84 45.68 43.67 42.97 43.25 42.82 42.51 40.95 40.62 41.74
40.48 38.98 39.19 42.33 43.53 40.45 41.28 40.59 43.27 44.83 45.76 46.78 46.82 47.45 48.45 49.27 49.78 49.72 49.69 49.81 50.38 50.35 50.56 50.01 50.11 50.15 50.81 52.05 52.86 53.15 52.63 52.49 52.75 52.64 51.73 51.26 49.61 48.08 46.71 45.92 45.02 43.60 42.98 42.64 42.10 41.47 40.40 41.57 41.03
40.19 38.13 39.01 39.12 40.90 41.19 39.03 39.76 41.21 45.42 46.00 46.31 46.73 47.56 47.59 47.53 46.88 47.83 47.97 48.20 48.29 47.77 47.86 47.69 48.48 48.80 48.96 50.35 51.09 50.78 48.95 50.21 49.34 49.75 49.07 48.64 48.46 47.41 45.87 45.74 44.99 43.62 43.46 42.47 42.50 41.78 41.76 39.87 39.77
37.15 42.95 39.78 37.99 36.61 34.11 38.86 33.05 40.89 43.94 44.14 44.89 46.70 46.16 46.65 46.74 46.79 47.11 45.69 45.54 45.05 44.64 45.92 46.24 46.57 47.00 47.14 48.29 48.45 47.98 46.76 46.04 47.21 47.47 47.91 47.40 46.77 46.34 45.80 45.53 44.97 44.07 43.13 42.89 42.63 42.33 42.65 43.21 39.28
38.77 39.46 37.91 36.95 36.27 34.73 36.47 33.00 40.92 40.03 42.05 44.37 45.48 44.91 44.73 44.51 44.32 43.26 43.28 43.22 43.66 43.27 43.33 44.84 45.26 45.49 45.32 46.22 47.03 46.70 46.14 47.72 48.16 47.25 46.52 45.82 44.94 45.29 44.90 44.64 44.40 43.73 42.77 43.18 42.51 41.35 41.64 42.48 42.76
39.64 38.87 38.22 35.79 35.74 30.76 37.59 35.25 37.43 40.35 41.72 43.27 45.18 42.24 42.44 42.24 42.14 41.92 42.27 42.46 42.32 43.23 42.57 42.65 43.37 42.87 44.02 44.49 45.20 45.32 45.00 45.69 45.49 44.39 44.41 44.04 43.96 43.45 43.93 43.40 43.45 43.18 42.39 42.28 41.98 41.45 41.09 41.02 41.65
38.18 36.14 31.83 32.00 30.89 31.65 34.66 34.13 37.16 42.52 42.47 42.37 40.31 40.05 40.57 41.00 40.63 40.19 40.05 40.23 40.66 40.91 41.60 41.17 41.31 40.53 41.55 42.27 42.95 43.81 44.01 44.60 44.71 44.20 43.58 43.74 42.65 41.79 41.99 41.88 41.36 41.43 41.56 41.87 41.56 40.70 40.14 40.18 39.77
35.46 37.06 31.84 26.61 28.74 32.91 37.36 33.46 39.69 43.75 43.52 40.95 40.45 40.11 39.91 39.68 39.99 39.58 39.74 40.00 39.86 39.96 40.28 40.87 39.66 39.16 39.83 40.13 40.55 41.61 42.17 42.58 43.51 43.59 43.71 43.64 43.26 43.02 42.86 41.76 41.49 41.26 40.96 40.66 40.21 39.74 39.48 39.71 39.29
37.24 33.10 39.04 32.35 33.28 29.13 34.32 39.00 43.09 41.76 42.03 39.73 39.30 39.76 38.05 38.14 38.25 38.28 39.21 39.73 39.58 39.34 39.32 39.19 39.47 38.93 38.74 38.92 39.31 39.46 40.21 40.57 41.14 42.25 42.74 42.75 43.31 42.69 42.32 41.63 40.24 40.91 40.40 39.74 39.07 38.13 37.68 37.98 38.54
38.00 38.98 31.06 32.36 24.80 24.47 30.70 33.01 34.89 39.10 38.88 38.65 37.92 36.92 36.34 36.92 37.26 37.74 38.18 38.45 38.68 38.85 39.16 39.13 38.97 37.47 37.65 38.02 38.47 38.60 38.70 38.77 39.43 40.05 40.11 40.55 41.46 41.61 40.66 40.63 39.41 40.25 39.87 38.93 38.19 37.72 37.86 37.26 37.04
32.77 32.94 33.84 33.00 31.84 26.18 24.76 30.41 40.74 38.90 36.80 36.40 35.40 34.79 34.44 34.93 35.38 36.35 37.48 38.55 38.58 38.06 37.78 37.62 36.98 36.63 36.26 36.22 36.55 37.24 37.64 37.85 37.88 37.80 38.07 38.53 39.64 39.92 39.50 39.80 39.01 38.68 38.25 38.10 37.18 37.05 37.42 35.92 35.83
39.15 37.05 37.32 30.24 28.21 30.92 29.48 30.13 38.90 36.76 35.41 33.82 31.70 32.22 33.36 33.29 33.63 34.36 35.63 37.21 37.12 35.50 35.37 35.60 35.65 35.03 34.96 35.59 35.67 35.57 36.14 36.36 36.66 36.83 37.18 37.62 36.72 37.93 37.93 38.38 37.75 37.50 37.05 36.91 35.99 35.60 35.32 34.87 34.20

GFSSGP_sfc_wetblb_030.txt.gz
Wetbulb
62.81 62.02 60.25 57.55 48.16 47.12 43.38 45.19 46.96 48.43 48.23 48.86 50.15 48.03 46.80 48.37 46.90 44.50 57.76 62.33 63.42 66.18 69.64 71.54 72.58 73.45 73.28 72.96 72.74 72.84 72.80 72.88 71.79 72.18 72.28 71.89 71.24 71.14 71.81 72.28 71.63 70.97 70.38 69.38 68.66 67.87 67.68 66.34 65.25
59.93 59.72 58.20 53.59 44.44 41.00 41.16 45.39 46.98 48.43 49.25 49.25 49.24 48.86 47.81 46.44 52.47 55.97 57.34 62.95 63.45 66.15 69.64 70.69 71.63 73.05 73.08 72.87 72.57 72.51 72.72 72.83 72.09 71.63 71.12 70.68 69.98 69.35 69.28 71.09 70.52 69.64 69.03 68.15 67.49 66.69 65.42 63.98 64.01
59.87 58.86 52.56 48.53 44.60 40.89 41.42 46.17 46.88 48.67 50.25 47.92 47.47 49.25 47.83 49.31 52.96 55.27 60.16 63.29 62.94 64.01 69.71 70.66 71.40 72.84 72.99 72.84 72.49 72.37 72.62 72.77 72.61 71.48 70.84 70.17 69.08 68.25 67.52 68.02 68.15 68.27 68.14 66.36 65.51 64.58 63.26 62.76 61.57
57.62 55.08 51.94 43.16 43.07 44.27 44.25 46.30 48.15 48.22 48.60 48.62 48.20 46.78 49.64 53.37 53.68 57.42 61.55 63.53 61.70 63.35 69.19 69.64 71.55 72.90 72.92 72.81 72.49 72.32 72.45 72.75 72.55 72.23 70.98 70.32 68.63 66.83 66.65 66.90 66.97 66.61 66.40 64.95 63.63 63.01 61.81 60.70 59.45
56.22 52.75 44.79 42.86 44.09 43.48 44.41 47.82 47.32 47.33 47.85 47.76 47.71 45.95 47.90 52.17 56.59 57.98 60.87 62.98 61.46 62.93 66.30 69.84 70.97 72.16 72.71 72.77 72.47 72.23 72.13 72.39 72.56 72.24 71.75 68.63 67.63 66.53 65.47 65.56 66.35 66.22 65.33 63.53 62.75 61.48 60.08 58.89 57.66
50.55 49.11 42.31 41.05 43.09 45.28 46.01 49.15 47.84 47.54 47.32 47.53 45.38 45.94 47.63 53.46 53.99 55.36 60.57 61.40 62.63 62.56 65.25 69.40 68.35 69.78 71.20 71.91 71.98 71.80 71.89 71.94 72.29 71.54 70.52 69.27 67.66 66.55 65.47 65.11 65.50 65.35 63.88 62.39 62.06 59.75 58.89 57.91 56.62
48.77 46.76 42.66 42.35 43.47 44.63 46.61 47.94 45.02 46.46 46.62 46.32 48.11 44.18 47.46 49.91 53.79 55.96 57.42 60.52 62.08 62.76 64.06 65.81 68.37 68.36 67.60 69.42 70.00 70.58 71.02 71.19 71.25 70.16 69.10 68.33 67.73 66.20 65.40 65.00 64.80 64.05 62.39 61.81 60.55 59.21 58.23 57.08 55.51
50.65 47.39 42.36 41.07 42.31 43.46 46.92 46.67 47.12 46.34 46.48 48.61 48.38 44.07 46.39 49.79 54.15 53.77 55.97 57.71 60.66 61.95 63.33 63.91 65.92 67.22 67.46 67.83 66.59 67.61 68.95 69.05 68.73 67.34 65.79 65.01 64.89 64.65 64.35 63.10 64.19 62.68 61.55 61.17 59.81 58.71 57.56 56.05 53.77
52.77 43.25 41.01 43.48 43.45 44.04 47.50 44.90 47.44 47.98 45.82 47.50 49.54 47.81 50.18 53.66 54.59 53.60 55.51 56.45 58.59 60.99 62.34 63.61 64.00 65.57 66.22 66.83 66.18 64.89 65.78 65.94 65.32 64.26 62.89 61.53 61.56 61.56 60.24 60.30 62.27 62.19 61.83 60.36 59.19 57.92 56.42 54.03 51.24
47.26 43.28 44.20 47.21 46.50 45.36 47.19 45.92 46.38 45.51 46.32 46.54 47.48 50.59 51.74 52.42 51.66 51.91 52.72 53.98 56.23 58.09 60.63 62.72 63.42 64.09 64.68 66.41 65.71 65.65 65.29 64.74 64.35 64.11 62.51 62.10 61.02 60.07 59.61 57.75 60.47 61.74 60.82 60.09 58.57 57.09 54.59 51.85 44.35
48.64 43.75 47.70 47.96 49.08 48.60 47.17 46.13 47.62 45.77 44.38 46.75 46.29 48.25 49.19 48.62 50.12 50.59 51.18 52.37 54.37 57.75 59.93 61.73 62.59 63.61 63.61 63.96 62.97 64.79 64.64 63.25 64.69 64.60 62.98 62.21 61.06 57.57 55.52 54.78 55.97 54.59 55.32 53.00 53.24 50.72 46.95 44.32 43.51
45.32 48.49 48.80 49.28 49.64 47.64 45.82 48.16 46.36 46.75 46.84 49.82 49.21 49.79 49.46 48.96 49.09 49.67 50.24 51.02 51.51 54.05 58.29 60.55 61.80 62.43 62.83 63.02 62.25 62.19 62.32 61.67 63.28 61.65 62.36 61.93 58.99 55.69 53.88 54.04 54.25 53.21 51.48 50.14 48.66 45.14 43.96 43.71 43.89
45.39 47.35 49.21 49.21 48.41 47.72 48.68 46.47 45.77 47.24 48.85 49.98 50.24 49.95 48.93 48.75 48.91 50.09 50.75 51.35 52.06 52.39 53.99 58.29 60.82 60.88 61.99 62.24 61.77 61.52 61.33 62.62 62.14 60.82 62.12 62.23 57.97 54.49 53.53 53.04 53.48 53.65 51.05 49.74 46.89 43.56 43.33 42.62 42.56
46.76 46.71 46.55 47.25 47.12 47.41 45.87 45.50 44.58 47.14 48.58 48.35 48.29 47.90 47.72 48.04 48.92 48.75 49.58 50.09 50.73 52.27 53.01 55.34 59.47 60.53 60.84 61.11 61.08 61.53 60.70 60.88 62.28 61.48 61.89 60.86 57.09 54.04 52.70 51.76 52.42 52.19 50.02 48.15 44.71 42.96 42.08 41.65 41.69
46.67 42.34 44.32 45.51 46.16 45.23 46.02 41.85 42.86 47.24 47.44 46.79 47.41 46.48 47.27 47.61 48.38 47.83 49.45 50.13 50.75 51.34 52.42 53.98 56.24 59.30 59.24 59.76 60.42 60.26 60.20 60.19 60.38 60.85 59.81 58.80 55.98 53.66 52.03 50.89 50.86 50.39 48.64 46.11 43.11 42.27 42.10 41.01 41.74
42.76 41.58 37.11 44.37 45.81 44.32 43.90 37.24 44.76 46.65 45.48 45.12 45.96 45.63 46.48 47.82 48.39 48.44 49.14 49.32 49.04 49.64 51.58 52.95 55.23 56.19 57.65 57.57 58.50 59.72 58.97 58.64 58.59 59.01 58.15 57.61 55.88 53.38 50.85 49.65 49.51 49.04 46.25 42.99 41.35 40.15 39.75 39.37 39.01
39.98 34.49 37.78 41.39 46.29 43.56 41.45 37.99 44.53 46.52 45.65 44.62 46.11 46.18 45.97 46.93 47.53 48.02 48.38 48.61 49.29 49.26 49.22 51.10 53.22 53.91 55.76 56.87 56.97 57.89 58.24 57.60 57.33 57.63 56.79 55.66 55.14 53.01 50.32 48.50 48.42 46.84 43.17 41.21 41.26 39.41 39.16 38.08 37.96
35.98 37.35 39.29 38.81 43.15 42.86 40.02 39.33 43.33 45.08 45.17 45.13 45.84 45.36 45.11 45.23 45.36 46.36 46.06 46.74 46.82 46.78 47.58 48.54 49.69 52.20 53.79 54.39 55.04 55.34 55.88 56.17 56.04 55.45 55.32 54.82 53.94 52.24 48.67 46.99 47.00 44.65 41.28 40.02 39.77 38.67 38.87 38.61 38.18
39.64 37.65 36.89 40.60 44.01 41.30 40.92 41.35 42.35 44.35 45.19 45.11 45.10 44.44 43.97 44.21 45.01 44.89 44.78 44.70 45.00 45.49 45.92 46.16 46.42 47.84 49.56 50.29 50.68 52.11 52.15 53.61 53.89 54.21 54.26 53.70 52.57 51.11 48.35 45.77 44.99 42.97 41.84 40.94 39.76 38.77 37.97 37.66 37.18
39.87 37.27 36.49 40.23 43.25 40.78 39.42 39.33 42.67 44.19 44.30 44.78 43.87 43.24 42.98 42.39 42.46 43.32 42.89 42.60 42.58 42.99 43.83 44.92 45.84 46.07 47.19 47.94 49.58 50.11 50.86 51.43 52.84 53.06 53.02 52.97 51.41 50.28 48.40 45.64 43.70 41.74 39.73 39.43 40.06 38.63 36.95 37.07 37.44
38.95 37.47 37.40 36.49 39.12 39.67 37.52 34.89 38.57 42.86 43.36 43.53 43.52 42.77 41.93 40.88 40.77 41.41 41.52 41.22 41.18 41.21 41.37 42.76 43.67 44.19 45.23 46.34 47.04 47.35 47.51 45.81 45.62 48.58 49.17 50.69 50.66 49.17 47.74 45.79 43.59 41.77 39.98 39.65 39.19 38.88 38.44 34.97 35.82
35.32 40.74 38.50 37.54 33.32 28.71 36.15 25.87 35.17 40.98 40.67 40.44 40.38 39.65 39.29 39.49 40.34 40.71 40.26 39.89 40.23 40.37 41.27 41.49 42.06 42.44 44.20 44.50 44.74 44.07 43.75 42.72 43.50 45.16 47.28 48.35 49.02 48.59 47.44 45.66 44.03 41.95 40.35 38.74 38.05 39.37 38.93 36.88 35.35
37.87 39.10 36.97 35.92 32.19 30.63 32.32 28.50 33.80 39.67 36.07 37.40 38.26 38.79 38.67 39.03 39.27 38.81 38.81 39.74 39.87 39.62 39.17 39.34 40.07 40.94 41.44 41.58 42.04 41.70 41.40 42.36 42.81 43.08 42.31 43.46 45.09 45.89 46.24 45.44 43.59 42.15 40.54 38.41 38.12 37.02 36.54 37.81 35.88
40.29 36.29 36.32 34.96 32.51 25.41 32.86 31.87 33.03 35.55 36.46 36.40 38.34 38.95 39.32 38.89 38.86 39.40 39.45 39.29 38.06 38.03 37.74 38.09 38.30 38.59 39.68 39.84 39.53 38.75 38.22 38.62 38.98 39.90 40.34 40.75 41.98 42.83 43.55 43.79 43.02 42.25 40.62 38.59 37.67 37.14 36.48 36.00 36.15
36.10 32.29 26.68 25.84 23.42 25.10 34.92 31.36 34.22 40.37 39.46 38.86 37.85 37.65 37.77 37.86 37.47 37.19 37.13 37.16 37.51 36.89 37.02 37.96 36.75 35.93 37.04 37.48 37.71 37.75 37.38 37.40 37.54 37.58 37.92 38.07 39.27 39.99 40.77 41.16 40.59 40.80 40.50 39.28 37.91 36.66 35.76 36.18 36.21
34.67 35.23 28.29 20.58 23.25 25.87 32.15 27.04 35.13 39.50 39.62 39.53 38.87 37.62 37.42 36.78 36.96 36.95 36.98 36.54 36.06 36.67 36.55 36.85 35.93 34.74 35.16 35.30 35.55 36.35 36.64 36.95 37.07 37.09 37.41 37.40 37.81 38.29 39.32 39.80 39.73 40.11 40.05 39.26 37.60 35.95 35.40 35.51 36.99
35.94 32.99 38.15 32.39 27.96 26.65 28.96 33.47 39.21 38.35 37.59 37.53 36.78 35.91 34.38 34.63 35.39 35.84 36.47 36.00 34.67 34.93 35.83 35.51 34.70 33.93 33.75 34.62 35.28 34.67 34.73 34.78 34.94 35.14 35.58 35.92 36.42 38.12 37.47 37.15 37.19 37.89 38.26 37.84 37.12 34.72 34.30 34.57 34.49
36.34 38.03 31.14 31.82 19.32 13.31 25.01 26.51 30.75 35.61 36.25 36.36 34.36 33.25 33.63 33.76 33.76 34.14 35.20 34.76 33.63 33.27 33.44 33.80 33.50 32.25 32.25 32.82 33.30 33.79 33.49 33.87 33.63 33.29 32.62 33.21 34.62 35.25 34.92 34.56 34.91 35.70 36.20 36.32 35.37 34.22 33.81 33.44 33.44
32.35 31.20 32.14 32.48 28.77 21.51 21.18 25.44 36.61 35.82 37.73 35.21 34.03 34.30 33.45 33.07 32.33 32.33 32.87 34.81 34.03 32.83 32.89 32.64 32.65 31.60 30.87 31.86 32.41 32.08 31.80 32.02 31.88 31.17 31.62 31.80 32.29 33.04 33.26 33.56 32.96 33.30 33.38 34.12 33.59 33.29 33.30 32.64 32.81
36.58 34.60 34.52 29.66 25.85 28.12 28.34 28.16 37.95 35.05 34.52 34.40 34.00 34.37 32.92 32.81 30.96 30.89 32.50 33.01 33.91 31.77 30.70 31.05 31.45 31.16 31.47 31.91 31.70 31.66 31.22 30.33 28.98 29.18 29.95 30.03 30.41 30.62 31.20 32.23 31.86 32.11 32.28 32.06 32.53 32.60 33.23 31.90 31.79

GFSSGP_sfc_wetblb_033.txt.gz
Wetbulb
60.67 57.32 55.82 52.58 43.62 41.66 37.77 40.90 42.83 44.93 44.43 45.71 47.77 45.74 44.26 45.57 45.03 41.77 56.36 59.92 64.96 67.57 70.04 71.75 72.92 73.61 73.71 73.26 73.14 73.16 73.13 72.27 72.09 71.78 72.06 71.63 71.47 71.83 71.37 71.86 71.93 70.97 70.35 69.28 68.77 68.44 67.39 66.02 65.75
55.70 58.12 53.30 47.71 39.97 35.21 37.11 41.39 43.36 45.52 46.76 46.75 46.61 46.15 44.97 44.38 51.21 54.35 55.72 61.29 65.55 68.02 69.78 71.04 71.68 73.19 73.36 73.09 72.89 72.96 73.10 73.21 72.11 72.33 72.47 71.78 71.04 70.46 71.52 71.49 70.66 70.22 69.39 68.41 67.85 66.87 65.27 64.64 64.08
56.88 56.86 47.70 43.03 38.30 35.62 37.10 40.80 41.81 45.30 46.29 45.76 45.02 47.02 45.80 47.45 50.76 55.06 58.41 61.80 63.65 67.68 69.25 70.88 71.30 73.03 73.23 72.90 72.59 72.54 72.59 72.66 72.69 72.13 71.35 70.68 69.82 68.92 68.98 69.89 69.56 69.18 67.89 66.65 65.90 65.05 63.85 62.45 61.83
53.25 50.88 46.60 39.25 36.79 39.57 39.46 40.27 43.70 44.38 45.49 46.38 45.30 43.26 47.48 50.84 52.42 56.45 60.67 61.71 60.58 67.17 68.73 70.09 71.59 73.01 72.97 72.65 72.40 72.36 72.66 72.71 72.62 72.23 71.11 70.31 69.17 68.13 68.36 67.98 68.24 67.71 66.68 65.57 64.31 63.48 62.27 60.61 59.65
51.21 46.06 39.43 37.71 38.69 41.37 41.47 45.21 44.36 44.35 44.36 44.83 45.52 43.52 45.23 51.40 55.46 58.38 60.17 61.25 59.22 63.33 67.58 69.81 71.11 72.16 72.53 72.58 72.41 72.28 72.54 72.85 72.53 72.10 71.72 70.80 68.56 66.40 66.13 66.43 66.52 66.37 65.84 64.39 63.62 61.76 60.30 58.80 57.54
45.87 43.04 36.89 35.03 38.03 41.57 42.58 45.50 44.36 43.97 44.97 44.82 43.52 43.39 44.91 50.35 51.71 55.34 59.75 59.72 59.91 61.77 67.72 69.46 68.64 69.92 71.17 71.94 72.02 71.86 71.91 72.29 72.35 72.22 71.72 69.94 68.02 66.74 65.45 65.43 65.73 65.94 65.24 63.51 62.61 60.34 58.89 57.73 56.18
45.15 40.80 36.48 37.24 39.31 41.68 43.50 44.71 42.36 42.06 42.83 43.43 45.07 41.83 45.43 47.24 51.00 54.56 58.12 59.10 59.91 61.51 66.78 68.33 69.15 69.14 68.37 69.64 69.94 70.53 71.05 71.23 71.64 71.60 71.12 69.04 67.98 67.43 65.67 65.34 65.29 65.52 64.05 62.91 61.20 59.61 58.44 57.08 55.15
45.64 42.04 38.54 37.63 38.01 40.21 44.04 44.10 45.42 43.39 44.20 46.52 46.26 41.24 45.22 48.74 53.00 53.87 54.80 56.87 58.60 59.73 62.54 66.00 67.32 68.00 68.21 68.88 67.01 67.72 68.84 69.27 69.84 69.04 66.94 65.60 65.39 65.40 64.42 63.66 64.44 64.53 62.87 62.31 60.38 59.22 58.00 56.40 53.91
47.20 38.30 35.64 38.40 39.84 41.26 44.89 43.19 46.06 46.18 43.59 44.39 46.97 45.88 47.96 50.43 52.59 51.96 53.06 54.04 55.42 58.75 60.69 62.30 65.09 66.32 66.83 66.47 66.31 65.26 66.33 66.79 66.58 65.26 63.39 61.89 61.72 61.62 61.30 61.10 63.45 63.60 62.55 61.59 60.11 58.72 57.27 54.48 51.31
42.94 37.49 39.60 42.73 40.81 41.87 43.90 42.32 42.45 43.32 43.49 43.24 44.97 47.18 48.75 50.63 48.65 50.10 50.78 51.95 53.26 55.76 58.43 61.11 62.35 64.36 65.22 67.51 66.05 64.73 65.41 65.54 64.24 62.77 61.49 60.94 60.07 59.63 59.43 58.08 60.89 62.29 61.98 61.47 59.77 58.25 55.80 50.34 42.14
44.42 40.10 43.69 45.87 46.61 45.53 44.68 44.58 44.71 42.70 41.34 44.02 44.42 46.17 46.50 48.71 48.53 48.96 49.31 51.28 52.95 55.45 57.42 60.46 61.61 62.52 63.86 64.94 64.00 64.99 64.74 62.82 62.65 62.14 62.22 62.00 60.81 58.32 57.07 55.25 56.52 56.03 56.46 54.60 54.56 52.44 47.71 45.69 43.12
41.17 45.97 46.38 46.96 47.08 45.30 44.12 45.13 44.98 44.20 46.28 47.45 47.11 47.39 46.46 46.95 46.33 47.81 47.97 48.50 49.05 52.77 56.93 59.39 61.31 62.22 62.30 63.33 62.89 64.44 64.23 63.22 62.70 63.98 62.63 61.72 60.68 56.24 53.68 53.31 53.41 52.43 51.14 50.04 48.26 46.68 43.79 42.15 42.10
41.59 43.13 45.81 46.64 45.94 45.14 45.44 43.73 44.30 44.54 47.48 48.16 48.45 47.85 46.90 46.20 46.31 46.76 47.96 48.46 48.80 49.33 52.95 57.46 60.15 61.69 62.71 61.64 61.27 62.21 63.09 62.94 62.64 60.70 61.56 62.26 60.46 57.13 52.54 52.44 52.83 50.97 49.87 48.57 46.57 44.03 41.73 41.07 41.34
42.98 43.56 43.71 44.69 45.20 44.98 43.37 42.51 44.05 45.10 45.81 46.05 46.22 45.40 45.05 45.28 45.56 45.75 46.29 47.64 47.54 49.58 50.33 54.75 59.63 60.95 61.47 62.17 60.44 60.13 60.56 60.74 60.07 59.24 60.11 60.23 59.58 56.75 52.75 51.90 52.21 51.41 49.79 47.94 45.50 42.01 40.67 40.09 40.07
43.65 40.27 42.03 43.21 43.41 42.88 43.33 39.78 41.76 45.46 44.45 44.38 44.62 43.98 44.42 45.21 45.16 44.51 45.94 46.00 46.03 47.36 48.58 51.00 57.74 59.52 60.32 59.92 60.01 59.42 59.43 59.62 60.71 60.13 58.86 58.55 57.86 56.44 52.63 51.14 50.93 51.84 49.38 46.76 42.79 41.19 40.36 39.33 39.88
40.25 37.12 34.63 41.88 43.17 42.91 41.19 35.41 42.99 44.97 42.26 43.64 44.62 43.59 44.14 42.94 43.69 43.79 44.45 44.63 44.70 45.17 46.26 49.22 55.01 57.13 57.34 57.85 58.46 59.18 58.85 58.17 58.32 59.21 59.61 57.85 56.81 55.86 53.22 50.14 49.88 49.47 47.47 44.81 41.10 39.72 38.92 38.32 37.94
35.24 31.24 34.41 38.16 42.64 41.79 39.42 35.98 42.74 44.52 43.49 42.39 42.96 42.64 42.41 41.68 42.19 42.64 43.35 43.50 44.00 44.41 44.99 46.14 48.55 54.50 56.00 56.09 56.96 57.84 57.70 57.07 56.97 57.16 56.50 57.05 55.48 54.14 51.30 49.43 48.99 47.85 45.01 41.81 41.13 37.87 38.04 36.35 36.21
32.22 31.96 35.15 35.03 40.51 40.28 37.52 37.07 40.81 42.90 42.58 42.77 40.26 40.78 40.00 40.01 40.36 42.16 42.14 42.73 42.86 43.17 44.34 45.21 46.45 48.44 52.78 54.08 54.07 54.41 54.82 54.95 55.06 55.27 56.37 55.64 55.36 51.76 49.67 48.11 47.91 45.48 42.30 39.76 38.78 37.76 36.83 36.51 36.08
35.86 34.36 33.36 36.35 41.13 37.78 37.73 37.12 40.03 42.51 42.27 42.42 39.50 39.03 38.94 39.50 41.54 41.88 41.70 41.43 41.54 41.24 41.89 42.73 43.50 44.86 46.85 48.91 50.12 51.02 51.44 52.43 52.69 54.81 55.43 54.87 54.50 52.63 48.22 46.48 46.08 43.15 41.74 39.69 38.55 37.08 36.50 35.79 35.00
36.16 33.92 33.64 37.24 40.27 37.53 36.55 36.67 39.91 42.42 39.34 38.73 38.41 37.77 38.13 39.04 39.53 40.30 39.88 39.56 39.57 39.50 40.10 40.84 41.51 42.72 43.87 45.61 46.42 47.79 48.57 48.57 51.31 52.17 52.65 53.60 53.03 52.08 48.41 45.62 44.12 42.03 39.48 38.62 38.12 37.34 35.26 35.64 35.05
35.91 34.36 33.79 35.08 36.47 36.93 33.89 32.10 35.81 37.47 39.11 39.59 39.04 38.85 38.74 37.91 37.57 37.63 38.08 37.89 37.83 37.60 38.06 39.42 40.15 40.83 41.28 43.09 44.84 44.87 45.35 44.65 43.95 45.85 48.33 49.65 50.58 50.70 49.76 47.03 43.38 41.15 39.71 39.42 38.37 36.96 36.57 34.47 34.82
33.00 37.97 37.03 35.88 31.41 27.23 33.31 24.38 32.88 35.76 35.33 36.54 36.47 35.30 35.65 36.40 37.47 37.68 37.07 37.07 37.10 36.73 37.68 38.18 39.03 39.47 40.39 40.40 40.26 39.76 40.37 39.94 40.99 41.87 44.01 46.39 47.42 47.32 47.26 47.19 44.11 41.34 39.24 38.15 37.29 37.95 36.54 35.33 33.54
35.69 36.97 34.91 33.73 30.01 28.17 29.29 25.37 30.61 34.95 32.83 33.94 34.54 35.39 35.74 36.26 36.51 36.28 36.25 37.03 36.94 36.64 35.95 36.24 37.09 37.88 38.51 38.56 38.18 37.91 37.39 38.18 38.73 39.86 40.00 40.50 43.10 44.70 45.22 44.56 43.29 42.84 41.14 37.84 36.85 36.20 35.34 35.05 35.54
38.17 34.39 34.08 31.32 29.42 23.32 29.42 28.86 29.54 32.11 34.17 33.74 35.06 35.46 36.02 35.80 35.70 35.77 36.51 36.60 35.01 34.62 34.40 34.76 35.01 35.26 36.42 36.99 36.80 36.16 35.49 35.76 35.83 36.19 36.65 37.69 39.08 40.61 41.71 42.81 42.13 41.77 40.16 38.37 36.94 36.23 35.56 36.49 35.19
35.22 30.22 25.16 23.42 21.68 23.15 31.39 29.33 32.61 36.98 36.06 36.03 34.24 34.03 34.44 34.68 34.19 33.96 33.61 33.60 33.82 33.05 33.00 34.01 33.19 33.23 34.38 34.83 35.08 34.87 35.15 34.88 34.74 34.81 35.14 34.94 35.77 36.52 37.01 37.67 38.54 39.51 40.29 39.16 37.45 35.66 34.90 34.87 35.89
32.62 32.39 26.01 18.02 22.04 23.80 30.29 27.04 32.80 35.10 36.32 35.99 35.39 34.63 34.59 34.00 34.30 34.10 33.86 32.91 33.49 33.34 32.59 32.05 31.83 31.64 32.93 33.42 33.58 33.92 34.06 34.29 34.43 33.59 33.76 33.95 34.39 35.07 35.78 35.41 35.65 36.59 38.23 39.00 37.27 35.49 34.34 34.08 34.64
33.74 30.89 35.65 29.20 28.50 21.38 26.81 31.15 33.50 35.24 34.16 33.98 33.16 32.71 32.12 33.50 34.66 34.99 33.24 32.30 32.01 32.49 32.31 31.66 30.98 31.09 31.77 32.83 32.51 33.04 33.07 32.94 32.29 31.47 31.97 32.13 33.16 34.82 34.72 34.26 33.69 34.15 34.63 35.40 36.08 34.56 33.72 33.24 33.42
35.91 37.72 28.67 30.12 16.72 15.97 23.52 25.46 27.23 31.65 32.24 32.95 31.26 31.36 31.55 32.57 33.16 34.16 33.52 32.51 31.72 31.51 31.44 31.66 31.95 30.16 30.32 31.09 31.63 31.82 31.36 32.15 31.31 31.08 30.92 30.32 31.22 31.66 32.03 32.06 32.39 33.10 33.29 32.97 32.78 32.18 32.78 32.21 32.89
30.71 29.98 32.20 32.11 28.71 21.89 17.16 22.97 33.69 34.37 34.09 32.18 31.49 32.23 32.61 32.74 32.63 32.39 33.01 33.14 31.46 31.07 29.92 29.46 29.60 29.63 29.45 30.08 30.45 31.38 31.31 31.40 30.46 29.05 28.91 29.04 29.67 29.94 29.85 31.00 30.95 30.64 30.43 31.26 31.55 31.56 31.79 31.71 32.02
35.27 32.92 32.41 28.21 24.32 26.14 26.35 26.54 35.58 34.91 34.12 32.95 32.99 33.07 31.68 31.34 29.13 29.21 30.00 30.89 30.44 29.25 29.14 28.87 29.46 29.59 30.10 30.76 29.69 29.49 30.20 29.74 29.50 28.32 28.06 28.44 28.58 29.28 29.04 29.11 28.64 28.68 29.20 29.45 29.16 29.60 30.17 30.43 30.70